• In Kazakhstan
  • List of Countries
  • For 7 days
  • Water Temperature
  • Weather Map
  • News
  • Weather Widgets
  • user-avatar
    Login

    Hourly Weather Patna

    Today, 4 June, Thursday

    Time Temperature Precipitation Wind Pressure Humidity
    00:00 +35°C° 0 mm 2 mps 747 mmHg 37%
    01:00 +34°C° 0 mm 2 mps 747 mmHg 37%
    02:00 +34°C° 0 mm 2 mps 746 mmHg 38%
    03:00 +34°C° 0 mm 2 mps 746 mmHg 38%
    04:00 +32°C° 0 mm 2 mps 746 mmHg 38%
    05:00 +32°C° 0 mm 2 mps 746 mmHg 39%
    06:00 +32°C° 0 mm 1 mps 747 mmHg 37%
    07:00 +33°C° 0 mm 1 mps 747 mmHg 35%
    08:00 +33°C° 0 mm 1 mps 747 mmHg 34%
    09:00 +34°C° 0 mm 1 mps 748 mmHg 32%
    10:00 +36°C° 0 mm 2 mps 748 mmHg 31%
    11:00 +37°C° 0 mm 2 mps 748 mmHg 29%
    12:00 +38°C° 0 mm 3 mps 748 mmHg 30%
    13:00 +37°C° 0 mm 4 mps 748 mmHg 33%
    14:00 +36°C° 0 mm 4 mps 747 mmHg 36%
    15:00 +35°C° 0 mm 4 mps 747 mmHg 39%
    16:00 +33°C° 0 mm 5 mps 747 mmHg 45%
    17:00 +30°C° 0 mm 6 mps 747 mmHg 51%
    18:00 +30°C° 0 mm 6 mps 747 mmHg 49%
    19:00 +30°C° 0 mm 6 mps 747 mmHg 49%
    20:00 +30°C° 0 mm 6 mps 747 mmHg 49%
    21:00 +29°C° 0 mm 5 mps 747 mmHg 50%
    22:00 +29°C° 0.1 mm 5 mps 747 mmHg 51%
    23:00 +29°C° 0.1 mm 4 mps 747 mmHg 53%

    Tomorrow, 5 June, Friday

    Time Temperature Precipitation Wind Pressure Humidity
    00:00 +29°C° 0.1 mm 4 mps 747 mmHg 55%
    01:00 +29°C° 0.1 mm 3 mps 747 mmHg 56%
    02:00 +29°C° 0.1 mm 2 mps 747 mmHg 57%
    03:00 +29°C° 0.1 mm 2 mps 746 mmHg 58%
    04:00 +28°C° 0.7 mm 3 mps 747 mmHg 60%
    05:00 +28°C° 0.7 mm 4 mps 747 mmHg 62%
    06:00 +28°C° 0.7 mm 5 mps 747 mmHg 63%
    07:00 +29°C° 0.2 mm 5 mps 747 mmHg 61%
    08:00 +30°C° 0.2 mm 6 mps 747 mmHg 59%
    09:00 +32°C° 0.2 mm 6 mps 747 mmHg 57%
    10:00 +34°C° 0 mm 6 mps 747 mmHg 51%
    11:00 +36°C° 0 mm 6 mps 747 mmHg 46%
    12:00 +39°C° 0 mm 6 mps 747 mmHg 41%
    13:00 +38°C° 0.1 mm 6 mps 746 mmHg 44%
    14:00 +36°C° 0.1 mm 5 mps 745 mmHg 47%
    15:00 +36°C° 0.1 mm 5 mps 744 mmHg 50%
    16:00 +35°C° 0.4 mm 5 mps 744 mmHg 52%
    17:00 +35°C° 0.4 mm 5 mps 744 mmHg 53%
    18:00 +35°C° 0.4 mm 5 mps 744 mmHg 55%
    19:00 +34°C° 1.6 mm 4 mps 745 mmHg 59%
    20:00 +33°C° 1.6 mm 3 mps 745 mmHg 63%
    21:00 +31°C° 1.6 mm 3 mps 746 mmHg 67%
    22:00 +31°C° 1.8 mm 2 mps 746 mmHg 68%
    23:00 +31°C° 1.8 mm 2 mps 746 mmHg 70%

    Day after tomorrow, 6 June, Saturday

    Time Temperature Precipitation Wind Pressure Humidity
    00:00 +30°C° 1.8 mm 2 mps 746 mmHg 71%
    01:00 +30°C° 0.7 mm 2 mps 746 mmHg 72%
    02:00 +30°C° 0.7 mm 2 mps 746 mmHg 73%
    03:00 +30°C° 0.7 mm 3 mps 746 mmHg 73%
    04:00 +29°C° 0.3 mm 2 mps 746 mmHg 74%
    05:00 +29°C° 0.3 mm 2 mps 746 mmHg 75%
    06:00 +29°C° 0.3 mm 2 mps 746 mmHg 76%
    07:00 +30°C° 0 mm 2 mps 746 mmHg 73%
    08:00 +30°C° 0 mm 2 mps 747 mmHg 70%
    09:00 +31°C° 0 mm 2 mps 747 mmHg 67%
    10:00 +32°C° 0.1 mm 2 mps 747 mmHg 63%
    11:00 +34°C° 0.1 mm 2 mps 747 mmHg 60%
    12:00 +35°C° 0.1 mm 2 mps 747 mmHg 57%
    13:00 +35°C° 0 mm 2 mps 746 mmHg 54%
    14:00 +36°C° 0 mm 2 mps 745 mmHg 51%
    15:00 +37°C° 0 mm 3 mps 745 mmHg 47%
    16:00 +37°C° 0 mm 3 mps 745 mmHg 47%
    17:00 +37°C° 0 mm 3 mps 744 mmHg 47%
    18:00 +37°C° 0 mm 3 mps 744 mmHg 47%
    19:00 +37°C° 0 mm 2 mps 744 mmHg 48%
    20:00 +36°C° 0 mm 2 mps 745 mmHg 49%
    21:00 +35°C° 0 mm 1 mps 745 mmHg 50%
    22:00 +35°C° 0 mm 1 mps 745 mmHg 51%
    23:00 +34°C° 0 mm 1 mps 745 mmHg 52%

    7 June, Sunday

    Time Temperature Precipitation Wind Pressure Humidity
    00:00 +34°C° 0 mm 1 mps 745 mmHg 53%
    01:00 +33°C° 0 mm 1 mps 745 mmHg 55%
    02:00 +33°C° 0 mm 1 mps 745 mmHg 56%
    03:00 +32°C° 0 mm 1 mps 745 mmHg 58%
    04:00 +32°C° 0 mm 1 mps 745 mmHg 59%
    05:00 +32°C° 0 mm 1 mps 745 mmHg 60%
    06:00 +32°C° 0 mm 1 mps 745 mmHg 60%
    07:00 +33°C° 0 mm 1 mps 745 mmHg 55%
    08:00 +34°C° 0 mm 1 mps 745 mmHg 50%
    09:00 +37°C° 0 mm 2 mps 746 mmHg 45%
    10:00 +38°C° 0 mm 2 mps 746 mmHg 41%
    11:00 +39°C° 0 mm 3 mps 745 mmHg 37%
    12:00 +42°C° 0 mm 3 mps 745 mmHg 32%
    13:00 +42°C° 0 mm 4 mps 744 mmHg 31%
    14:00 +42°C° 0 mm 4 mps 744 mmHg 29%
    15:00 +43°C° 0 mm 4 mps 743 mmHg 28%
    16:00 +43°C° 0 mm 4 mps 743 mmHg 27%
    17:00 +43°C° 0 mm 4 mps 742 mmHg 27%
    18:00 +43°C° 0 mm 4 mps 742 mmHg 26%
    19:00 +42°C° 0 mm 3 mps 742 mmHg 28%
    20:00 +40°C° 0 mm 2 mps 742 mmHg 29%
    21:00 +39°C° 0 mm 1 mps 743 mmHg 31%
    22:00 +39°C° 0 mm 1 mps 743 mmHg 31%
    23:00 +37°C° 0 mm 1 mps 743 mmHg 32%

    8 June, Monday

    Time Temperature Precipitation Wind Pressure Humidity
    00:00 +37°C° 0 mm 1 mps 743 mmHg 32%
    01:00 +37°C° 0 mm 1 mps 743 mmHg 33%
    02:00 +37°C° 0 mm 1 mps 743 mmHg 33%
    03:00 +36°C° 0 mm 1 mps 743 mmHg 34%
    04:00 +36°C° 0 mm 1 mps 743 mmHg 35%
    05:00 +36°C° 0 mm 1 mps 743 mmHg 35%
    06:00 +35°C° 0 mm 1 mps 743 mmHg 36%
    07:00 +37°C° 0 mm 1 mps 743 mmHg 34%
    08:00 +39°C° 0 mm 1 mps 744 mmHg 32%
    09:00 +40°C° 0 mm 2 mps 744 mmHg 31%
    10:00 +41°C° 0 mm 2 mps 744 mmHg 29%
    11:00 +42°C° 0 mm 2 mps 744 mmHg 27%
    12:00 +44°C° 0 mm 3 mps 743 mmHg 25%
    13:00 +45°C° 0 mm 3 mps 743 mmHg 23%
    14:00 +45°C° 0 mm 3 mps 742 mmHg 21%
    15:00 +46°C° 0 mm 3 mps 742 mmHg 20%
    16:00 +46°C° 0 mm 3 mps 741 mmHg 20%
    17:00 +46°C° 0 mm 3 mps 741 mmHg 20%
    18:00 +45°C° 0 mm 3 mps 740 mmHg 20%
    19:00 +44°C° 0 mm 3 mps 741 mmHg 22%
    20:00 +43°C° 0 mm 3 mps 741 mmHg 24%
    21:00 +41°C° 0 mm 2 mps 742 mmHg 25%
    22:00 +41°C° 0 mm 2 mps 742 mmHg 26%
    23:00 +41°C° 0 mm 2 mps 742 mmHg 26%

    9 June, Tuesday

    Time Temperature Precipitation Wind Pressure Humidity
    00:00 +40°C° 0 mm 1 mps 742 mmHg 27%
    01:00 +40°C° 0 mm 1 mps 742 mmHg 28%
    02:00 +39°C° 0 mm 1 mps 742 mmHg 30%
    03:00 +39°C° 0 mm 2 mps 741 mmHg 31%
    04:00 +38°C° 0 mm 2 mps 742 mmHg 34%
    05:00 +38°C° 0 mm 2 mps 742 mmHg 38%
    06:00 +37°C° 0 mm 2 mps 742 mmHg 42%
    07:00 +38°C° 0 mm 2 mps 743 mmHg 40%
    08:00 +39°C° 0 mm 2 mps 743 mmHg 37%
    09:00 +41°C° 0 mm 2 mps 744 mmHg 35%
    10:00 +42°C° 0 mm 2 mps 743 mmHg 31%
    11:00 +45°C° 0 mm 2 mps 743 mmHg 27%
    12:00 +46°C° 0 mm 2 mps 743 mmHg 22%
    13:00 +47°C° 0 mm 2 mps 742 mmHg 21%
    14:00 +47°C° 0 mm 2 mps 742 mmHg 19%
    15:00 +48°C° 0 mm 3 mps 741 mmHg 18%
    16:00 +47°C° 0 mm 3 mps 741 mmHg 18%
    17:00 +47°C° 0 mm 3 mps 741 mmHg 19%
    18:00 +47°C° 0 mm 3 mps 740 mmHg 19%
    19:00 +46°C° 0 mm 2 mps 741 mmHg 20%
    20:00 +45°C° 0 mm 2 mps 741 mmHg 22%
    21:00 +43°C° 0 mm 1 mps 741 mmHg 24%
    22:00 +42°C° 0 mm 2 mps 741 mmHg 28%
    23:00 +42°C° 0 mm 3 mps 742 mmHg 32%
    Show more